Time,TemperatureF,DewpointF,PressureIn,WindDirection,WindDirectionDegrees,WindSpeedMPH,WindSpeedGustMPH,Humidity,HourlyPrecipIn,Conditions,Clouds,dailyrainin,SoftwareType,DateUTC
2013-07-02 00:00:00,73.7,66.0,29.95,East,84,4.0,4.0,77,0.00,,,0.00,Wunderground v.1.15,2013-07-02 10:00:00,
2013-07-02 00:05:00,73.5,66.2,29.95,ENE,69,3.0,4.0,78,0.00,,,0.00,Wunderground v.1.15,2013-07-02 10:05:00,
2013-07-02 00:15:00,73.4,66.1,29.95,East,80,3.0,5.0,78,0.00,,,0.00,Wunderground v.1.15,2013-07-02 10:15:00,
2013-07-02 00:20:00,73.3,66.0,29.95,ENE,59,3.0,4.0,78,0.00,,,0.00,Wunderground v.1.15,2013-07-02 10:20:00,
2013-07-02 00:30:00,73.3,66.0,29.95,ENE,65,3.0,3.0,78,0.00,,,0.00,Wunderground v.1.15,2013-07-02 10:30:00,
2013-07-02 00:40:00,73.2,65.9,29.95,ENE,75,3.0,3.0,78,0.00,,,0.00,Wunderground v.1.15,2013-07-02 10:40:00,
2013-07-02 00:50:00,73.1,66.2,29.94,ENE,63,3.0,5.0,79,0.00,,,0.00,Wunderground v.1.15,2013-07-02 10:50:00,
2013-07-02 01:00:00,73.1,66.2,29.94,East,83,3.0,3.0,79,0.00,,,0.00,Wunderground v.1.15,2013-07-02 11:00:00,
2013-07-02 01:05:00,73.1,66.2,29.94,NE,46,3.0,6.0,79,0.00,,,0.00,Wunderground v.1.15,2013-07-02 11:05:00,
2013-07-02 01:15:00,73.3,66.4,29.94,ENE,60,4.0,4.0,79,0.00,,,0.00,Wunderground v.1.15,2013-07-02 11:15:00,
2013-07-02 01:20:00,73.4,66.5,29.94,NE,40,4.0,11.0,79,0.00,,,0.00,Wunderground v.1.15,2013-07-02 11:20:00,
2013-07-02 01:30:00,73.3,66.4,29.93,East,88,3.0,3.0,79,0.00,,,0.00,Wunderground v.1.15,2013-07-02 11:30:00,
2013-07-02 01:40:00,73.3,66.4,29.93,ENE,71,3.0,3.0,79,0.00,,,0.00,Wunderground v.1.15,2013-07-02 11:40:00,
2013-07-02 01:50:00,73.3,66.4,29.93,East,97,3.0,5.0,79,0.00,,,0.00,Wunderground v.1.15,2013-07-02 11:50:00,
2013-07-02 02:00:00,73.3,66.4,29.93,ENE,66,3.0,7.0,79,0.00,,,0.00,Wunderground v.1.15,2013-07-02 12:00:00,
2013-07-02 02:05:00,73.3,66.4,29.93,ENE,62,3.0,7.0,79,0.00,,,0.00,Wunderground v.1.15,2013-07-02 12:05:00,
2013-07-02 02:15:00,73.2,65.6,29.93,ENE,76,3.0,3.0,77,0.00,,,0.00,Wunderground v.1.15,2013-07-02 12:15:00,
2013-07-02 02:25:00,73.1,65.5,29.93,ENE,71,3.0,4.0,77,0.00,,,0.00,Wunderground v.1.15,2013-07-02 12:25:00,
2013-07-02 02:35:00,73.1,65.8,29.93,ENE,59,3.0,4.0,78,0.00,,,0.00,Wunderground v.1.15,2013-07-02 12:35:00,
2013-07-02 02:45:00,73.0,65.7,29.92,ENE,67,3.0,3.0,78,0.00,,,0.00,Wunderground v.1.15,2013-07-02 12:45:00,
2013-07-02 02:55:00,72.9,66.0,29.92,East,79,3.0,4.0,79,0.00,,,0.00,Wunderground v.1.15,2013-07-02 12:55:00,
2013-07-02 03:05:00,73.0,66.1,29.92,ENE,72,3.0,5.0,79,0.00,,,0.00,Wunderground v.1.15,2013-07-02 13:05:00,
2013-07-02 03:15:00,73.1,66.2,29.92,ENE,57,3.0,3.0,79,0.00,,,0.00,Wunderground v.1.15,2013-07-02 13:15:00,
2013-07-02 03:20:00,73.1,66.2,29.92,East,88,2.0,3.0,79,0.00,,,0.00,Wunderground v.1.15,2013-07-02 13:20:00,
2013-07-02 03:30:00,73.0,66.1,29.92,NE,53,2.0,2.0,79,0.00,,,0.00,Wunderground v.1.15,2013-07-02 13:30:00,
2013-07-02 03:40:00,72.8,65.9,29.92,NE,49,2.0,2.0,79,0.00,,,0.00,Wunderground v.1.15,2013-07-02 13:40:00,
2013-07-02 03:50:00,72.6,66.1,29.92,ENE,59,1.0,1.0,80,0.00,,,0.00,Wunderground v.1.15,2013-07-02 13:50:00,
2013-07-02 04:00:00,72.4,65.9,29.92,ENE,68,1.0,2.0,80,0.00,,,0.00,Wunderground v.1.15,2013-07-02 14:00:00,
2013-07-02 04:05:00,72.3,65.8,29.92,East,84,1.0,2.0,80,0.00,,,0.00,Wunderground v.1.15,2013-07-02 14:05:00,
2013-07-02 04:15:00,72.2,65.7,29.92,ENE,76,1.0,2.0,80,0.00,,,0.00,Wunderground v.1.15,2013-07-02 14:15:00,
2013-07-02 04:25:00,72.1,65.6,29.92,East,85,1.0,4.0,80,0.00,,,0.00,Wunderground v.1.15,2013-07-02 14:25:00,
2013-07-02 04:35:00,71.8,65.7,29.92,East,85,1.0,1.0,81,0.00,,,0.00,Wunderground v.1.15,2013-07-02 14:35:00,
2013-07-02 04:45:00,71.5,65.4,29.92,East,85,1.0,1.0,81,0.00,,,0.00,Wunderground v.1.15,2013-07-02 14:45:00,
2013-07-02 04:55:00,71.2,65.4,29.92,East,84,1.0,1.0,82,0.00,,,0.00,Wunderground v.1.15,2013-07-02 14:55:00,
2013-07-02 05:05:00,71.3,65.5,29.92,East,85,1.0,1.0,82,0.00,,,0.00,Wunderground v.1.15,2013-07-02 15:05:00,
2013-07-02 05:15:00,71.6,65.8,29.92,East,91,1.0,1.0,82,0.00,,,0.00,Wunderground v.1.15,2013-07-02 15:15:00,
2013-07-02 05:25:00,71.7,65.9,29.92,East,92,1.0,1.0,82,0.00,,,0.00,Wunderground v.1.15,2013-07-02 15:25:00,
2013-07-02 05:35:00,71.8,66.0,29.92,East,92,1.0,2.0,82,0.00,,,0.00,Wunderground v.1.15,2013-07-02 15:35:00,
2013-07-02 05:40:00,71.8,66.0,29.92,East,92,1.0,1.0,82,0.00,,,0.00,Wunderground v.1.15,2013-07-02 15:40:00,
2013-07-02 05:50:00,71.8,66.4,29.93,East,92,1.0,1.0,83,0.00,,,0.00,Wunderground v.1.15,2013-07-02 15:50:00,
2013-07-02 06:00:00,71.9,66.5,29.93,East,90,1.0,1.0,83,0.00,,,0.00,Wunderground v.1.15,2013-07-02 16:00:00,
2013-07-02 06:05:00,71.9,66.5,29.94,East,91,1.0,1.0,83,0.00,,,0.00,Wunderground v.1.15,2013-07-02 16:05:00,
2013-07-02 06:15:00,72.2,66.7,29.94,East,90,1.0,1.0,83,0.00,,,0.00,Wunderground v.1.15,2013-07-02 16:15:00,
2013-07-02 06:20:00,72.3,66.8,29.94,East,92,1.0,1.0,83,0.00,,,0.00,Wunderground v.1.15,2013-07-02 16:20:00,
2013-07-02 06:30:00,72.5,67.0,29.95,East,92,0.0,0.0,83,0.00,,,0.00,Wunderground v.1.15,2013-07-02 16:30:00,
2013-07-02 06:40:00,72.9,67.4,29.96,East,91,1.0,1.0,83,0.00,,,0.00,Wunderground v.1.15,2013-07-02 16:40:00,
2013-07-02 06:50:00,73.2,68.1,29.96,East,91,0.0,1.0,84,0.00,,,0.00,Wunderground v.1.15,2013-07-02 16:50:00,
2013-07-02 06:55:00,73.9,68.4,29.96,ENE,67,1.0,1.0,83,0.00,,,0.00,Wunderground v.1.15,2013-07-02 16:55:00,
2013-07-02 07:05:00,75.1,67.8,29.96,NE,36,4.0,5.0,78,0.00,,,0.00,Wunderground v.1.15,2013-07-02 17:05:00,
2013-07-02 07:15:00,74.6,67.7,29.97,NNE,30,5.0,5.0,79,0.00,,,0.00,Wunderground v.1.15,2013-07-02 17:15:00,
2013-07-02 07:20:00,74.6,67.7,29.97,NE,49,4.0,4.0,79,0.00,,,0.00,Wunderground v.1.15,2013-07-02 17:20:00,
2013-07-02 07:30:00,74.2,69.1,29.97,NE,55,6.0,6.0,84,0.00,,,0.00,Wunderground v.1.15,2013-07-02 17:30:00,
2013-07-02 07:40:00,74.7,69.2,29.98,NE,56,4.0,12.0,83,0.00,,,0.00,Wunderground v.1.15,2013-07-02 17:40:00,
2013-07-02 07:50:00,75.3,68.3,29.97,NE,36,6.0,9.0,79,0.00,,,0.00,Wunderground v.1.15,2013-07-02 17:50:00,
2013-07-02 08:00:00,75.4,69.2,29.98,ESE,113,6.0,6.0,81,0.00,,,0.00,Wunderground v.1.15,2013-07-02 18:00:00,
2013-07-02 08:05:00,75.3,68.7,29.98,East,95,4.0,6.0,80,0.00,,,0.00,Wunderground v.1.15,2013-07-02 18:05:00,
2013-07-02 08:15:00,75.1,68.5,29.98,East,89,3.0,3.0,80,0.00,,,0.00,Wunderground v.1.15,2013-07-02 18:15:00,
2013-07-02 08:25:00,76.6,68.8,29.98,East,99,4.0,4.0,77,0.00,,,0.00,Wunderground v.1.15,2013-07-02 18:25:00,
2013-07-02 08:35:00,77.1,69.3,29.97,ESE,102,3.0,4.0,77,0.00,,,0.00,Wunderground v.1.15,2013-07-02 18:35:00,
2013-07-02 08:40:00,78.3,70.1,29.97,East,99,2.0,2.0,76,0.00,,,0.00,Wunderground v.1.15,2013-07-02 18:40:00,
2013-07-02 08:50:00,79.0,69.6,29.97,NE,39,4.0,5.0,73,0.00,,,0.00,Wunderground v.1.15,2013-07-02 18:50:00,
2013-07-02 08:55:00,78.6,68.8,29.97,NE,36,5.0,6.0,72,0.00,,,0.00,Wunderground v.1.15,2013-07-02 18:55:00,
2013-07-02 09:05:00,78.4,69.0,29.97,ENE,76,5.0,9.0,73,0.00,,,0.00,Wunderground v.1.15,2013-07-02 19:05:00,
2013-07-02 09:15:00,78.7,68.5,29.98,NE,41,5.0,5.0,71,0.00,,,0.00,Wunderground v.1.15,2013-07-02 19:15:00,
2013-07-02 09:25:00,78.4,69.8,29.97,NE,34,6.0,14.0,75,0.00,,,0.00,Wunderground v.1.15,2013-07-02 19:25:00,
2013-07-02 09:30:00,78.0,69.0,29.98,NNE,29,8.0,8.0,74,0.00,,,0.00,Wunderground v.1.15,2013-07-02 19:30:00,
2013-07-02 09:35:00,77.9,69.7,29.97,NE,56,8.0,8.0,76,0.00,,,0.00,Wunderground v.1.15,2013-07-02 19:35:00,
2013-07-02 09:45:00,77.7,69.9,29.97,NE,51,7.0,9.0,77,0.00,,,0.00,Wunderground v.1.15,2013-07-02 19:45:00,
2013-07-02 09:55:00,77.4,69.6,29.97,NE,55,7.0,9.0,77,0.00,,,0.00,Wunderground v.1.15,2013-07-02 19:55:00,
2013-07-02 10:00:00,77.3,69.9,29.97,NE,34,7.0,10.0,78,0.00,,,0.00,Wunderground v.1.15,2013-07-02 20:00:00,
2013-07-02 10:05:00,77.4,70.4,29.97,ENE,59,7.0,10.0,79,0.00,,,0.00,Wunderground v.1.15,2013-07-02 20:05:00,
2013-07-02 10:15:00,78.2,70.4,29.97,NE,34,6.0,7.0,77,0.00,,,0.00,Wunderground v.1.15,2013-07-02 20:15:00,
2013-07-02 10:25:00,77.8,70.0,29.97,ENE,67,7.0,9.0,77,0.00,,,0.00,Wunderground v.1.15,2013-07-02 20:25:00,
2013-07-02 10:35:00,77.5,69.7,29.97,NNE,25,7.0,11.0,77,0.00,,,0.00,Wunderground v.1.15,2013-07-02 20:35:00,
2013-07-02 10:40:00,77.3,70.3,29.97,NE,40,6.0,6.0,79,0.00,,,0.00,Wunderground v.1.15,2013-07-02 20:40:00,
2013-07-02 10:45:00,77.3,69.5,29.97,ENE,60,5.0,6.0,77,0.00,,,0.00,Wunderground v.1.15,2013-07-02 20:45:00,
2013-07-02 10:55:00,77.7,68.7,29.96,NNE,30,6.0,6.0,74,0.00,,,0.00,Wunderground v.1.15,2013-07-02 20:55:00,
2013-07-02 11:05:00,78.2,70.0,29.96,NNE,32,8.0,8.0,76,0.00,,,0.00,Wunderground v.1.15,2013-07-02 21:05:00,
2013-07-02 11:15:00,77.9,69.3,29.96,ENE,57,7.0,13.0,75,0.00,,,0.00,Wunderground v.1.15,2013-07-02 21:15:00,
2013-07-02 11:20:00,78.2,69.6,29.96,NE,55,7.0,7.0,75,0.00,,,0.00,Wunderground v.1.15,2013-07-02 21:20:00,
2013-07-02 11:30:00,77.9,69.3,29.96,NNE,30,8.0,13.0,75,0.00,,,0.00,Wunderground v.1.15,2013-07-02 21:30:00,
2013-07-02 11:40:00,78.5,69.9,29.96,NE,36,7.0,14.0,75,0.00,,,0.00,Wunderground v.1.15,2013-07-02 21:40:00,
2013-07-02 11:50:00,78.2,70.4,29.96,ENE,60,8.0,8.0,77,0.00,,,0.00,Wunderground v.1.15,2013-07-02 21:50:00,
2013-07-02 11:55:00,77.7,71.0,29.95,NNE,32,6.0,11.0,80,0.00,,,0.00,Wunderground v.1.15,2013-07-02 21:55:00,
2013-07-02 12:05:00,79.2,70.2,29.95,NE,52,7.0,13.0,74,0.00,,,0.00,Wunderground v.1.15,2013-07-02 22:05:00,
2013-07-02 12:15:00,78.9,70.3,29.95,ENE,65,7.0,9.0,75,0.00,,,0.00,Wunderground v.1.15,2013-07-02 22:15:00,
2013-07-02 12:20:00,79.2,69.8,29.95,NE,48,6.0,6.0,73,0.00,,,0.00,Wunderground v.1.15,2013-07-02 22:20:00,
2013-07-02 12:30:00,79.4,69.2,29.95,NE,53,6.0,6.0,71,0.00,,,0.00,Wunderground v.1.15,2013-07-02 22:30:00,
2013-07-02 12:40:00,79.7,67.8,29.94,ESE,104,5.0,6.0,67,0.00,,,0.00,Wunderground v.1.15,2013-07-02 22:40:00,
2013-07-02 12:50:00,80.8,67.9,29.94,ENE,74,5.0,5.0,65,0.00,,,0.00,Wunderground v.1.15,2013-07-02 22:50:00,
2013-07-02 12:55:00,81.2,68.3,29.94,NE,36,5.0,7.0,65,0.00,,,0.00,Wunderground v.1.15,2013-07-02 22:55:00,
2013-07-02 13:05:00,81.0,68.1,29.94,ESE,112,6.0,7.0,65,0.00,,,0.00,Wunderground v.1.15,2013-07-02 23:05:00,
2013-07-02 13:15:00,81.1,68.7,29.93,ENE,68,5.0,9.0,66,0.00,,,0.00,Wunderground v.1.15,2013-07-02 23:15:00,
2013-07-02 13:25:00,80.4,69.3,29.93,NE,45,7.0,10.0,69,0.00,,,0.00,Wunderground v.1.15,2013-07-02 23:25:00,
2013-07-02 13:30:00,80.1,69.0,29.93,NE,44,7.0,7.0,69,0.00,,,0.00,Wunderground v.1.15,2013-07-02 23:30:00,
2013-07-02 13:35:00,80.3,69.2,29.93,NE,39,7.0,11.0,69,0.00,,,0.00,Wunderground v.1.15,2013-07-02 23:35:00,
2013-07-02 13:40:00,80.3,70.0,29.93,NE,42,7.0,7.0,71,0.00,,,0.00,Wunderground v.1.15,2013-07-02 23:40:00,
2013-07-02 13:50:00,79.8,68.7,29.94,NE,44,7.0,7.0,69,0.00,,,0.00,Wunderground v.1.15,2013-07-02 23:50:00,
2013-07-02 13:55:00,79.3,68.2,29.93,NE,53,8.0,8.0,69,0.00,,,0.00,Wunderground v.1.15,2013-07-02 23:55:00,
2013-07-02 14:05:00,79.1,69.3,29.93,NE,37,8.0,11.0,72,0.00,,,0.00,Wunderground v.1.15,2013-07-03 00:05:00,
2013-07-02 14:15:00,78.0,68.6,29.93,NE,53,7.0,9.0,73,0.00,,,0.00,Wunderground v.1.15,2013-07-03 00:15:00,
2013-07-02 14:20:00,78.4,69.8,29.93,NE,39,8.0,8.0,75,0.00,,,0.00,Wunderground v.1.15,2013-07-03 00:20:00,
2013-07-02 14:25:00,78.3,70.1,29.92,NE,44,7.0,8.0,76,0.00,,,0.00,Wunderground v.1.15,2013-07-03 00:25:00,
2013-07-02 14:35:00,78.4,70.2,29.92,NNE,29,9.0,9.0,76,0.00,,,0.00,Wunderground v.1.15,2013-07-03 00:35:00,
2013-07-02 14:45:00,79.0,70.4,29.92,NE,45,8.0,8.0,75,0.00,,,0.00,Wunderground v.1.15,2013-07-03 00:45:00,
2013-07-02 14:55:00,79.2,70.6,29.92,ENE,62,8.0,11.0,75,0.00,,,0.00,Wunderground v.1.15,2013-07-03 00:55:00,
2013-07-02 15:00:00,79.7,70.3,29.92,East,82,7.0,7.0,73,0.00,,,0.00,Wunderground v.1.15,2013-07-03 01:00:00,
2013-07-02 15:05:00,79.8,70.0,29.91,NNE,19,7.0,7.0,72,0.00,,,0.00,Wunderground v.1.15,2013-07-03 01:05:00,
2013-07-02 15:15:00,80.0,69.7,29.92,NE,40,7.0,9.0,71,0.00,,,0.00,Wunderground v.1.15,2013-07-03 01:15:00,
2013-07-02 15:25:00,79.7,69.5,29.92,NE,34,8.0,9.0,71,0.00,,,0.00,Wunderground v.1.15,2013-07-03 01:25:00,
2013-07-02 15:35:00,79.5,69.3,29.91,NNE,28,8.0,12.0,71,0.00,,,0.00,Wunderground v.1.15,2013-07-03 01:35:00,
2013-07-02 15:40:00,79.4,70.0,29.91,NE,36,8.0,8.0,73,0.00,,,0.00,Wunderground v.1.15,2013-07-03 01:40:00,
2013-07-02 15:45:00,79.7,69.5,29.91,NNE,28,8.0,8.0,71,0.00,,,0.00,Wunderground v.1.15,2013-07-03 01:45:00,
2013-07-02 15:50:00,79.6,69.8,29.91,NE,40,8.0,8.0,72,0.00,,,0.00,Wunderground v.1.15,2013-07-03 01:50:00,
2013-07-02 15:55:00,79.8,70.0,29.91,NNE,30,7.0,8.0,72,0.00,,,0.00,Wunderground v.1.15,2013-07-03 01:55:00,
2013-07-02 16:05:00,79.8,70.0,29.91,NE,40,8.0,8.0,72,0.00,,,0.00,Wunderground v.1.15,2013-07-03 02:05:00,
2013-07-02 16:15:00,79.9,69.2,29.91,NE,42,8.0,10.0,70,0.00,,,0.00,Wunderground v.1.15,2013-07-03 02:15:00,
2013-07-02 16:25:00,80.0,70.2,29.91,NNE,30,7.0,10.0,72,0.00,,,0.00,Wunderground v.1.15,2013-07-03 02:25:00,
2013-07-02 16:35:00,78.1,70.3,29.91,NNE,26,7.0,15.0,77,0.00,,,0.00,Wunderground v.1.15,2013-07-03 02:35:00,
2013-07-02 16:45:00,79.3,71.1,29.91,NNE,13,6.0,9.0,76,0.00,,,0.00,Wunderground v.1.15,2013-07-03 02:45:00,
2013-07-02 17:05:00,79.2,69.8,29.90,NNE,33,7.0,9.0,73,0.00,,,0.00,Wunderground v.1.15,2013-07-03 03:05:00,
2013-07-02 17:15:00,78.9,69.1,29.90,ESE,104,6.0,13.0,72,0.00,,,0.00,Wunderground v.1.15,2013-07-03 03:15:00,
2013-07-02 17:30:00,78.5,70.7,29.91,NE,42,5.0,5.0,77,0.00,,,0.00,Wunderground v.1.15,2013-07-03 03:30:00,
2013-07-02 17:35:00,78.6,70.4,29.91,East,90,4.0,5.0,76,0.00,,,0.00,Wunderground v.1.15,2013-07-03 03:35:00,
2013-07-02 17:45:00,77.6,69.4,29.91,ENE,65,5.0,5.0,76,0.00,,,0.00,Wunderground v.1.15,2013-07-03 03:45:00,
2013-07-02 17:55:00,77.5,69.3,29.91,East,79,5.0,5.0,76,0.00,,,0.00,Wunderground v.1.15,2013-07-03 03:55:00,
2013-07-02 18:00:00,77.1,68.9,29.91,NE,47,5.0,5.0,76,0.00,,,0.00,Wunderground v.1.15,2013-07-03 04:00:00,
2013-07-02 18:05:00,76.9,69.1,29.91,NE,48,5.0,5.0,77,0.00,,,0.00,Wunderground v.1.15,2013-07-03 04:05:00,
2013-07-02 18:10:00,77.2,69.0,29.91,ENE,71,4.0,4.0,76,0.00,,,0.00,Wunderground v.1.15,2013-07-03 04:10:00,
2013-07-02 18:20:00,77.3,68.4,29.91,East,94,4.0,4.0,74,0.00,,,0.00,Wunderground v.1.15,2013-07-03 04:20:00,
2013-07-02 18:25:00,77.2,68.3,29.91,East,87,4.0,4.0,74,0.00,,,0.00,Wunderground v.1.15,2013-07-03 04:25:00,
2013-07-02 18:35:00,76.9,67.6,29.91,East,79,4.0,4.0,73,0.00,,,0.00,Wunderground v.1.15,2013-07-03 04:35:00,
2013-07-02 18:45:00,77.1,67.0,29.91,ENE,63,3.0,5.0,71,0.00,,,0.00,Wunderground v.1.15,2013-07-03 04:45:00,
2013-07-02 18:50:00,76.8,66.7,29.91,East,90,3.0,4.0,71,0.00,,,0.00,Wunderground v.1.15,2013-07-03 04:50:00,
2013-07-02 19:00:00,76.2,66.9,29.92,NE,45,4.0,4.0,73,0.00,,,0.00,Wunderground v.1.15,2013-07-03 05:00:00,
2013-07-02 19:05:00,75.9,66.6,29.92,ENE,59,4.0,4.0,73,0.00,,,0.00,Wunderground v.1.15,2013-07-03 05:05:00,
2013-07-02 19:10:00,75.8,66.5,29.92,ENE,61,4.0,4.0,73,0.00,,,0.00,Wunderground v.1.15,2013-07-03 05:10:00,
2013-07-02 19:20:00,75.5,67.0,29.91,ENE,71,3.0,5.0,75,0.00,,,0.00,Wunderground v.1.15,2013-07-03 05:20:00,
2013-07-02 19:25:00,75.4,67.3,29.92,ESE,103,3.0,5.0,76,0.00,,,0.00,Wunderground v.1.15,2013-07-03 05:25:00,
2013-07-02 19:35:00,75.2,67.1,29.92,East,99,4.0,4.0,76,0.00,,,0.00,Wunderground v.1.15,2013-07-03 05:35:00,
2013-07-02 19:45:00,75.1,67.4,29.92,ENE,72,3.0,4.0,77,0.00,,,0.00,Wunderground v.1.15,2013-07-03 05:45:00,
2013-07-02 19:55:00,74.9,67.6,29.92,East,80,3.0,4.0,78,0.00,,,0.00,Wunderground v.1.15,2013-07-03 05:55:00,
2013-07-02 20:00:00,75.0,68.0,29.93,ENE,65,3.0,3.0,79,0.00,,,0.00,Wunderground v.1.15,2013-07-03 06:00:00,
2013-07-02 20:05:00,74.9,68.3,29.93,NE,49,4.0,4.0,80,0.00,,,0.00,Wunderground v.1.15,2013-07-03 06:05:00,
2013-07-02 20:15:00,74.7,67.8,29.93,East,84,3.0,5.0,79,0.00,,,0.00,Wunderground v.1.15,2013-07-03 06:15:00,
2013-07-02 20:25:00,74.6,68.0,29.93,ENE,65,4.0,4.0,80,0.00,,,0.00,Wunderground v.1.15,2013-07-03 06:25:00,
2013-07-02 20:35:00,74.5,67.9,29.93,East,80,4.0,5.0,80,0.00,,,0.00,Wunderground v.1.15,2013-07-03 06:35:00,
2013-07-02 20:40:00,74.5,67.9,29.93,ENE,78,3.0,3.0,80,0.00,,,0.00,Wunderground v.1.15,2013-07-03 06:40:00,
2013-07-02 20:45:00,74.4,67.5,29.93,ENE,75,2.0,5.0,79,0.00,,,0.00,Wunderground v.1.15,2013-07-03 06:45:00,
2013-07-02 20:50:00,74.4,67.5,29.94,ENE,76,3.0,3.0,79,0.00,,,0.00,Wunderground v.1.15,2013-07-03 06:50:00,
2013-07-02 20:55:00,74.4,67.5,29.94,NE,45,4.0,4.0,79,0.00,,,0.00,Wunderground v.1.15,2013-07-03 06:55:00,
2013-07-02 21:00:00,74.5,67.6,29.94,ENE,78,4.0,4.0,79,0.00,,,0.00,Wunderground v.1.15,2013-07-03 07:00:00,
2013-07-02 21:05:00,74.5,67.6,29.94,East,80,4.0,5.0,79,0.00,,,0.00,Wunderground v.1.15,2013-07-03 07:05:00,
2013-07-02 21:10:00,74.6,67.7,29.94,NE,49,4.0,5.0,79,0.00,,,0.00,Wunderground v.1.15,2013-07-03 07:10:00,
2013-07-02 21:20:00,74.6,67.7,29.94,NNE,25,3.0,3.0,79,0.00,,,0.00,Wunderground v.1.15,2013-07-03 07:20:00,
2013-07-02 21:30:00,74.7,68.1,29.94,East,97,4.0,4.0,80,0.00,,,0.00,Wunderground v.1.15,2013-07-03 07:30:00,
2013-07-02 21:40:00,74.6,68.0,29.94,NNE,32,4.0,4.0,80,0.00,,,0.00,Wunderground v.1.15,2013-07-03 07:40:00,
2013-07-02 21:50:00,74.6,68.0,29.95,ENE,65,4.0,4.0,80,0.00,,,0.00,Wunderground v.1.15,2013-07-03 07:50:00,
2013-07-02 21:55:00,74.6,68.4,29.95,ENE,72,4.0,5.0,81,0.00,,,0.00,Wunderground v.1.15,2013-07-03 07:55:00,
2013-07-02 22:15:00,74.6,68.0,29.95,East,82,4.0,6.0,80,0.00,,,0.00,Wunderground v.1.15,2013-07-03 08:15:00,
2013-07-02 22:20:00,74.6,68.0,29.95,NE,35,5.0,5.0,80,0.00,,,0.00,Wunderground v.1.15,2013-07-03 08:20:00,
2013-07-02 22:25:00,74.6,68.0,29.95,NE,55,4.0,5.0,80,0.00,,,0.00,Wunderground v.1.15,2013-07-03 08:25:00,
2013-07-02 22:35:00,74.0,68.2,29.95,East,80,6.0,9.0,82,0.00,,,0.00,Wunderground v.1.15,2013-07-03 08:35:00,
2013-07-02 22:45:00,72.7,67.6,29.95,ESE,117,4.0,5.0,84,0.00,,,0.00,Wunderground v.1.15,2013-07-03 08:45:00,
2013-07-02 22:55:00,72.4,66.6,29.96,ESE,113,4.0,10.0,82,0.00,,,0.00,Wunderground v.1.15,2013-07-03 08:55:00,
2013-07-02 23:00:00,72.4,66.6,29.96,SE,125,4.0,5.0,82,0.00,,,0.00,Wunderground v.1.15,2013-07-03 09:00:00,
2013-07-02 23:05:00,72.5,66.3,29.96,East,94,5.0,5.0,81,0.00,,,0.00,Wunderground v.1.15,2013-07-03 09:05:00,
2013-07-02 23:15:00,72.6,66.1,29.96,ESE,121,5.0,5.0,80,0.00,,,0.00,Wunderground v.1.15,2013-07-03 09:15:00,
2013-07-02 23:30:00,72.7,66.2,29.95,ESE,111,3.0,6.0,80,0.00,,,0.00,Wunderground v.1.15,2013-07-03 09:30:00,
2013-07-02 23:35:00,72.8,66.3,29.95,ESE,119,3.0,6.0,80,0.00,,,0.00,Wunderground v.1.15,2013-07-03 09:35:00,
2013-07-02 23:45:00,72.9,66.4,29.95,ESE,120,2.0,3.0,80,0.00,,,0.00,Wunderground v.1.15,2013-07-03 09:45:00,
2013-07-02 23:50:00,73.0,66.5,29.95,ESE,109,3.0,3.0,80,0.00,,,0.00,Wunderground v.1.15,2013-07-03 09:50:00,